SPACEMOBILE-005 (61046 NORAD) Tracking and Keplerian Element Data

This shows tracking and keplerian element data for the satellite.

Feedback or suggestion? Click here.




ElementValue
Catalog61046
NameSPACEMOBILE-005
Epoch Orbit462
Epoch Day286.86138615
Epoch Year2024
RAAN242.3852
Inclination52.976
Eccentricity0.0014313
Argument of Perigee58.0137
Mean Anonmoly302.2245
Mean Motion15.17552381
Decay Rate4.637E-05
L11 61046U 24163B 24286.86138615 .00004637 00000+0 24324-3 0 9990
L22 61046 52.9760 242.3852 0014313 58.0137 302.2245 15.17552381 4628



Live tracking and technical data element details for SPACEMOBILE-005 (NORAD 61046). SPACEMOBILE-005 can be tracked NOW for your location showing map with azimuth and elevation plus other details from your city location.







IsCatalogInMostPopularTable: catalog: 61046, numindb: 7
Update: records affected: 1



GetName: 61046 SPACEMOBILE-005

Hit Count: updated at: Tue, 03 Dec 2024 02:39:57 GMT